owner,sensor,date,latitude,longitude,vertical_datum,mass_concentration_of_oxygen_in_sea_water,qcFlag 
DISL,ioos:station:DISL:MBLA:1,2016-01-01T06:05:00Z,30.4367,-88.0117,3.109,8.18,1111122 
DISL,ioos:station:DISL:MBLA:1,2016-01-01T06:07:00Z,30.4367,-88.0117,2.498,8.32,1111122 
DISL,ioos:station:DISL:MBLA:1,2016-01-01T06:10:00Z,30.4367,-88.0117,2.113,8.4,1111122 
DISL,ioos:station:DISL:MBLA:1,2016-01-01T06:12:00Z,30.4367,-88.0117,1.505,8.44,1111122 
DISL,ioos:station:DISL:MBLA:1,2016-01-01T06:15:00Z,30.4367,-88.0117,1.031,8.51,1111122 
DISL,ioos:station:DISL:MBLA:1,2016-01-01T06:17:00Z,30.4367,-88.0117,0.655,8.49,1111122 
DISL,ioos:station:DISL:MBLA:1,2016-01-01T07:03:00Z,30.4367,-88.0117,3.423,8.19,1111122 
DISL,ioos:station:DISL:MBLA:1,2016-01-01T07:08:00Z,30.4367,-88.0117,2.58,8.41,1111122 
DISL,ioos:station:DISL:MBLA:1,2016-01-01T07:11:00Z,30.4367,-88.0117,2.115,8.42,1111122 
DISL,ioos:station:DISL:MBLA:1,2016-01-01T07:13:00Z,30.4367,-88.0117,1.484,8.5,1111122 
DISL,ioos:station:DISL:MBLA:1,2016-01-01T07:16:00Z,30.4367,-88.0117,0.976,8.51,1111122 
DISL,ioos:station:DISL:MBLA:1,2016-01-01T07:19:00Z,30.4367,-88.0117,0.445,8.53,1111122 
DISL,ioos:station:DISL:MBLA:1,2016-01-01T08:03:00Z,30.4367,-88.0117,3.382,8.24,1111122 
DISL,ioos:station:DISL:MBLA:1,2016-01-01T08:05:00Z,30.4367,-88.0117,2.965,8.36,1111122 
DISL,ioos:station:DISL:MBLA:1,2016-01-01T08:07:00Z,30.4367,-88.0117,2.487,8.43,1111122 
DISL,ioos:station:DISL:MBLA:1,2016-01-01T08:10:00Z,30.4367,-88.0117,2.003,8.45,1111122 
DISL,ioos:station:DISL:MBLA:1,2016-01-01T08:13:00Z,30.4367,-88.0117,1.58,8.5,1111122 
DISL,ioos:station:DISL:MBLA:1,2016-01-01T08:15:00Z,30.4367,-88.0117,1.121,8.48,1111122 
DISL,ioos:station:DISL:MBLA:1,2016-01-01T08:18:00Z,30.4367,-88.0117,0.662,8.54,1111122 
DISL,ioos:station:DISL:MBLA:1,2016-01-01T09:03:00Z,30.4367,-88.0117,3.555,8.44,1111122 
DISL,ioos:station:DISL:MBLA:1,2016-01-01T09:05:00Z,30.4367,-88.0117,3.087,8.42,1111122 
DISL,ioos:station:DISL:MBLA:1,2016-01-01T09:07:00Z,30.4367,-88.0117,2.556,8.46,1111122 
DISL,ioos:station:DISL:MBLA:1,2016-01-01T09:10:00Z,30.4367,-88.0117,2.051,8.49,1111122 
DISL,ioos:station:DISL:MBLA:1,2016-01-01T09:13:00Z,30.4367,-88.0117,1.424,8.51,1111122 
DISL,ioos:station:DISL:MBLA:1,2016-01-01T09:15:00Z,30.4367,-88.0117,0.941,8.54,1111122 
DISL,ioos:station:DISL:MBLA:1,2016-01-01T09:18:00Z,30.4367,-88.0117,0.434,8.52,1111122 
DISL,ioos:station:DISL:MBLA:1,2016-01-01T10:03:00Z,30.4367,-88.0117,3.491,8.28,1111122 
DISL,ioos:station:DISL:MBLA:1,2016-01-01T10:05:00Z,30.4367,-88.0117,3.001,8.4,1111122 
DISL,ioos:station:DISL:MBLA:1,2016-01-01T10:08:00Z,30.4367,-88.0117,2.464,8.44,1111122 
DISL,ioos:station:DISL:MBLA:1,2016-01-01T10:10:00Z,30.4367,-88.0117,1.908,8.46,1111122 
DISL,ioos:station:DISL:MBLA:1,2016-01-01T10:12:00Z,30.4367,-88.0117,1.66,8.51,1111122 
DISL,ioos:station:DISL:MBLA:1,2016-01-01T10:15:00Z,30.4367,-88.0117,1.088,8.56,1111122 
DISL,ioos:station:DISL:MBLA:1,2016-01-01T10:18:00Z,30.4367,-88.0117,0.641,8.59,1111122 
DISL,ioos:station:DISL:MBLA:1,2016-01-01T11:03:00Z,30.4367,-88.0117,3.524,8.29,1111122 
DISL,ioos:station:DISL:MBLA:1,2016-01-01T11:05:00Z,30.4367,-88.0117,2.962,8.44,1111122 
DISL,ioos:station:DISL:MBLA:1,2016-01-01T11:08:00Z,30.4367,-88.0117,2.629,8.43,1111122 
DISL,ioos:station:DISL:MBLA:1,2016-01-01T11:10:00Z,30.4367,-88.0117,1.847,8.46,1111122 
DISL,ioos:station:DISL:MBLA:1,2016-01-01T11:13:00Z,30.4367,-88.0117,1.542,8.54,1111122 
DISL,ioos:station:DISL:MBLA:1,2016-01-01T11:15:00Z,30.4367,-88.0117,1.122,8.53,1111122 
DISL,ioos:station:DISL:MBLA:1,2016-01-01T11:18:00Z,30.4367,-88.0117,0.786,8.56,1111122 
DISL,ioos:station:DISL:MBLA:1,2016-01-01T12:03:00Z,30.4367,-88.0117,3.544,8.44,1111122 
DISL,ioos:station:DISL:MBLA:1,2016-01-01T12:05:00Z,30.4367,-88.0117,2.987,8.51,1111122 
DISL,ioos:station:DISL:MBLA:1,2016-01-01T12:08:00Z,30.4367,-88.0117,2.623,8.49,1111122 
DISL,ioos:station:DISL:MBLA:1,2016-01-01T12:10:00Z,30.4367,-88.0117,2.092,8.47,1111122 
DISL,ioos:station:DISL:MBLA:1,2016-01-01T12:12:00Z,30.4367,-88.0117,1.529,8.5,1111122 
DISL,ioos:station:DISL:MBLA:1,2016-01-01T12:15:00Z,30.4367,-88.0117,0.786,8.51,1111122 
DISL,ioos:station:DISL:MBLA:1,2016-01-01T12:18:00Z,30.4367,-88.0117,0.705,8.54,1111122 
DISL,ioos:station:DISL:MBLA:1,2016-01-01T13:02:00Z,30.4367,-88.0117,3.302,8.52,1111122 
DISL,ioos:station:DISL:MBLA:1,2016-01-01T13:05:00Z,30.4367,-88.0117,2.954,8.48,1111122 
DISL,ioos:station:DISL:MBLA:1,2016-01-01T13:07:00Z,30.4367,-88.0117,2.264,8.38,1111122 
DISL,ioos:station:DISL:MBLA:1,2016-01-01T13:10:00Z,30.4367,-88.0117,1.935,8.33,1111122 
DISL,ioos:station:DISL:MBLA:1,2016-01-01T13:12:00Z,30.4367,-88.0117,1.599,8.43,1111122 
DISL,ioos:station:DISL:MBLA:1,2016-01-01T13:15:00Z,30.4367,-88.0117,0.859,8.49,1111122 
DISL,ioos:station:DISL:MBLA:1,2016-01-01T13:17:00Z,30.4367,-88.0117,0.309,8.55,1111122 
DISL,ioos:station:DISL:MBLA:1,2016-01-01T14:03:00Z,30.4367,-88.0117,3.568,8.49,1111122 
DISL,ioos:station:DISL:MBLA:1,2016-01-01T14:05:00Z,30.4367,-88.0117,2.979,8.53,1111122 
DISL,ioos:station:DISL:MBLA:1,2016-01-01T14:08:00Z,30.4367,-88.0117,2.528,8.57,1111122 
DISL,ioos:station:DISL:MBLA:1,2016-01-01T14:10:00Z,30.4367,-88.0117,2.064,8.6,1111122 
DISL,ioos:station:DISL:MBLA:1,2016-01-01T14:13:00Z,30.4367,-88.0117,1.614,8.66,1111122 
DISL,ioos:station:DISL:MBLA:1,2016-01-01T14:16:00Z,30.4367,-88.0117,0.979,8.68,1111122 
DISL,ioos:station:DISL:MBLA:1,2016-01-01T14:18:00Z,30.4367,-88.0117,0.549,8.7,1111122 
DISL,ioos:station:DISL:MBLA:1,2016-01-01T15:03:00Z,30.4367,-88.0117,3.457,8.36,1111122 
DISL,ioos:station:DISL:MBLA:1,2016-01-01T15:05:00Z,30.4367,-88.0117,3.116,8.34,1111122 
DISL,ioos:station:DISL:MBLA:1,2016-01-01T15:08:00Z,30.4367,-88.0117,2.455,8.51,1111122 
DISL,ioos:station:DISL:MBLA:1,2016-01-01T15:10:00Z,30.4367,-88.0117,1.978,8.62,1111122 
DISL,ioos:station:DISL:MBLA:1,2016-01-01T15:12:00Z,30.4367,-88.0117,1.611,8.69,1111122 
DISL,ioos:station:DISL:MBLA:1,2016-01-01T15:15:00Z,30.4367,-88.0117,0.992,8.72,1111122 
DISL,ioos:station:DISL:MBLA:1,2016-01-01T15:17:00Z,30.4367,-88.0117,0.542,8.77,1111122 
DISL,ioos:station:DISL:MBLA:1,2016-01-01T16:03:00Z,30.4367,-88.0117,3.478,8.42,1111122 
DISL,ioos:station:DISL:MBLA:1,2016-01-01T16:05:00Z,30.4367,-88.0117,3.009,8.49,1111122 
DISL,ioos:station:DISL:MBLA:1,2016-01-01T16:07:00Z,30.4367,-88.0117,2.497,8.63,1111122 
DISL,ioos:station:DISL:MBLA:1,2016-01-01T16:10:00Z,30.4367,-88.0117,2.039,8.67,1111122 
DISL,ioos:station:DISL:MBLA:1,2016-01-01T16:12:00Z,30.4367,-88.0117,1.451,8.72,1111122 
DISL,ioos:station:DISL:MBLA:1,2016-01-01T16:15:00Z,30.4367,-88.0117,1.0,8.83,1111122 
DISL,ioos:station:DISL:MBLA:1,2016-01-01T16:17:00Z,30.4367,-88.0117,0.461,8.81,1111122 
DISL,ioos:station:DISL:MBLA:1,2016-01-01T17:02:00Z,30.4367,-88.0117,3.373,8.45,1111122 
DISL,ioos:station:DISL:MBLA:1,2016-01-01T17:07:00Z,30.4367,-88.0117,2.468,8.67,1111122 
DISL,ioos:station:DISL:MBLA:1,2016-01-01T17:10:00Z,30.4367,-88.0117,2.006,8.74,1111122 
DISL,ioos:station:DISL:MBLA:1,2016-01-01T17:12:00Z,30.4367,-88.0117,1.517,8.81,1111122 
DISL,ioos:station:DISL:MBLA:1,2016-01-01T17:14:00Z,30.4367,-88.0117,0.974,8.85,1111122 
DISL,ioos:station:DISL:MBLA:1,2016-01-01T17:17:00Z,30.4367,-88.0117,0.454,8.92,1111122 
DISL,ioos:station:DISL:MBLA:1,2016-01-01T18:03:00Z,30.4367,-88.0117,3.52,8.45,1111122 
DISL,ioos:station:DISL:MBLA:1,2016-01-01T18:05:00Z,30.4367,-88.0117,3.146,8.58,1111122 
DISL,ioos:station:DISL:MBLA:1,2016-01-01T18:07:00Z,30.4367,-88.0117,2.596,8.59,1111122 
DISL,ioos:station:DISL:MBLA:1,2016-01-01T18:10:00Z,30.4367,-88.0117,2.123,8.65,1111122 
DISL,ioos:station:DISL:MBLA:1,2016-01-01T18:12:00Z,30.4367,-88.0117,1.558,8.74,1111122 
DISL,ioos:station:DISL:MBLA:1,2016-01-01T18:15:00Z,30.4367,-88.0117,1.142,8.75,1111122 
DISL,ioos:station:DISL:MBLA:1,2016-01-01T18:17:00Z,30.4367,-88.0117,0.651,8.82,1111122 
DISL,ioos:station:DISL:MBLA:1,2016-01-01T19:03:00Z,30.4367,-88.0117,3.414,8.58,1111122 
DISL,ioos:station:DISL:MBLA:1,2016-01-01T19:05:00Z,30.4367,-88.0117,2.884,8.63,1111122 
DISL,ioos:station:DISL:MBLA:1,2016-01-01T19:07:00Z,30.4367,-88.0117,2.457,8.7,1111122 
DISL,ioos:station:DISL:MBLA:1,2016-01-01T19:10:00Z,30.4367,-88.0117,2.029,8.74,1111122 
DISL,ioos:station:DISL:MBLA:1,2016-01-01T19:12:00Z,30.4367,-88.0117,1.691,8.72,1111122 
DISL,ioos:station:DISL:MBLA:1,2016-01-01T19:16:00Z,30.4367,-88.0117,1.176,8.73,1111122 
DISL,ioos:station:DISL:MBLA:1,2016-01-01T19:18:00Z,30.4367,-88.0117,0.606,8.74,1111122 
DISL,ioos:station:DISL:MBLA:1,2016-01-01T20:03:00Z,30.4367,-88.0117,3.495,8.69,1111122 
DISL,ioos:station:DISL:MBLA:1,2016-01-01T20:05:00Z,30.4367,-88.0117,2.975,8.66,1111122 
DISL,ioos:station:DISL:MBLA:1,2016-01-01T20:08:00Z,30.4367,-88.0117,2.633,8.7,1111122 
DISL,ioos:station:DISL:MBLA:1,2016-01-01T20:10:00Z,30.4367,-88.0117,1.998,8.75,1111122 
DISL,ioos:station:DISL:MBLA:1,2016-01-01T20:12:00Z,30.4367,-88.0117,1.453,8.82,1111122 
DISL,ioos:station:DISL:MBLA:1,2016-01-01T20:15:00Z,30.4367,-88.0117,0.873,8.83,1111122 
DISL,ioos:station:DISL:MBLA:1,2016-01-01T20:17:00Z,30.4367,-88.0117,0.597,8.84,1111122 
DISL,ioos:station:DISL:MBLA:1,2016-01-01T21:03:00Z,30.4367,-88.0117,3.479,8.6,1111122 
DISL,ioos:station:DISL:MBLA:1,2016-01-01T21:05:00Z,30.4367,-88.0117,3.08,8.69,1111122 
DISL,ioos:station:DISL:MBLA:1,2016-01-01T21:07:00Z,30.4367,-88.0117,2.565,8.82,1111122 
DISL,ioos:station:DISL:MBLA:1,2016-01-01T21:10:00Z,30.4367,-88.0117,1.948,8.86,1111122 
DISL,ioos:station:DISL:MBLA:1,2016-01-01T21:12:00Z,30.4367,-88.0117,1.324,8.86,1111122 
DISL,ioos:station:DISL:MBLA:1,2016-01-01T21:15:00Z,30.4367,-88.0117,0.987,8.89,1111122 
DISL,ioos:station:DISL:MBLA:1,2016-01-01T21:17:00Z,30.4367,-88.0117,0.395,8.92,1111122 
DISL,ioos:station:DISL:MBLA:1,2016-01-01T22:03:00Z,30.4367,-88.0117,3.484,8.65,1111122 
DISL,ioos:station:DISL:MBLA:1,2016-01-01T22:05:00Z,30.4367,-88.0117,2.998,8.68,1111122 
DISL,ioos:station:DISL:MBLA:1,2016-01-01T22:07:00Z,30.4367,-88.0117,2.49,8.73,1111122 
DISL,ioos:station:DISL:MBLA:1,2016-01-01T22:10:00Z,30.4367,-88.0117,2.131,8.76,1111122 
DISL,ioos:station:DISL:MBLA:1,2016-01-01T22:12:00Z,30.4367,-88.0117,1.49,8.78,1111122 
DISL,ioos:station:DISL:MBLA:1,2016-01-01T22:15:00Z,30.4367,-88.0117,1.064,8.83,1111122 
DISL,ioos:station:DISL:MBLA:1,2016-01-01T22:18:00Z,30.4367,-88.0117,0.249,8.85,1111122 
DISL,ioos:station:DISL:MBLA:1,2016-01-01T23:03:00Z,30.4367,-88.0117,3.431,8.6,1111122 
DISL,ioos:station:DISL:MBLA:1,2016-01-01T23:05:00Z,30.4367,-88.0117,2.972,8.66,1111122 
DISL,ioos:station:DISL:MBLA:1,2016-01-01T23:07:00Z,30.4367,-88.0117,2.567,8.71,1111122 
DISL,ioos:station:DISL:MBLA:1,2016-01-01T23:10:00Z,30.4367,-88.0117,1.935,8.77,1111122 
DISL,ioos:station:DISL:MBLA:1,2016-01-01T23:12:00Z,30.4367,-88.0117,1.374,8.84,1111122 
DISL,ioos:station:DISL:MBLA:1,2016-01-01T23:15:00Z,30.4367,-88.0117,0.89,8.8,1111122 
DISL,ioos:station:DISL:MBLA:1,2016-01-01T23:17:00Z,30.4367,-88.0117,0.609,8.84,1111122 
DISL,ioos:station:DISL:MBLA:1,2016-01-02T00:03:00Z,30.4367,-88.0117,3.451,8.65,1111122 
DISL,ioos:station:DISL:MBLA:1,2016-01-02T00:05:00Z,30.4367,-88.0117,3.048,8.68,1111122 
DISL,ioos:station:DISL:MBLA:1,2016-01-02T00:08:00Z,30.4367,-88.0117,2.57,8.7,1111122 
DISL,ioos:station:DISL:MBLA:1,2016-01-02T00:10:00Z,30.4367,-88.0117,2.118,8.73,1111122 
DISL,ioos:station:DISL:MBLA:1,2016-01-02T00:13:00Z,30.4367,-88.0117,1.392,8.73,1111122 
DISL,ioos:station:DISL:MBLA:1,2016-01-02T00:15:00Z,30.4367,-88.0117,0.908,8.75,1111122 
DISL,ioos:station:DISL:MBLA:1,2016-01-02T00:18:00Z,30.4367,-88.0117,0.453,8.77,1111122 
DISL,ioos:station:DISL:MBLA:1,2016-01-02T01:03:00Z,30.4367,-88.0117,3.51,8.46,1111122 
DISL,ioos:station:DISL:MBLA:1,2016-01-02T01:05:00Z,30.4367,-88.0117,3.079,8.54,1111122 
DISL,ioos:station:DISL:MBLA:1,2016-01-02T01:08:00Z,30.4367,-88.0117,2.473,8.66,1111122 
DISL,ioos:station:DISL:MBLA:1,2016-01-02T01:10:00Z,30.4367,-88.0117,2.161,8.68,1111122 
DISL,ioos:station:DISL:MBLA:1,2016-01-02T01:13:00Z,30.4367,-88.0117,1.206,8.67,1111122 
DISL,ioos:station:DISL:MBLA:1,2016-01-02T01:15:00Z,30.4367,-88.0117,0.792,8.71,1111122 
DISL,ioos:station:DISL:MBLA:1,2016-01-02T01:18:00Z,30.4367,-88.0117,0.557,8.74,1111122 
DISL,ioos:station:DISL:MBLA:1,2016-01-02T02:03:00Z,30.4367,-88.0117,3.383,8.56,1111122 
DISL,ioos:station:DISL:MBLA:1,2016-01-02T02:05:00Z,30.4367,-88.0117,3.089,8.66,1111122 
DISL,ioos:station:DISL:MBLA:1,2016-01-02T02:07:00Z,30.4367,-88.0117,2.53,8.69,1111122 
DISL,ioos:station:DISL:MBLA:1,2016-01-02T02:10:00Z,30.4367,-88.0117,2.068,8.72,1111122 
DISL,ioos:station:DISL:MBLA:1,2016-01-02T02:12:00Z,30.4367,-88.0117,1.721,8.72,1111122 
DISL,ioos:station:DISL:MBLA:1,2016-01-02T02:15:00Z,30.4367,-88.0117,0.999,8.69,1111122 
DISL,ioos:station:DISL:MBLA:1,2016-01-02T02:17:00Z,30.4367,-88.0117,0.793,8.74,1111122 
DISL,ioos:station:DISL:MBLA:1,2016-01-02T03:02:00Z,30.4367,-88.0117,3.458,8.69,1111122 
DISL,ioos:station:DISL:MBLA:1,2016-01-02T03:07:00Z,30.4367,-88.0117,2.597,8.78,1111122 
DISL,ioos:station:DISL:MBLA:1,2016-01-02T03:10:00Z,30.4367,-88.0117,2.103,8.79,1111122 
DISL,ioos:station:DISL:MBLA:1,2016-01-02T03:13:00Z,30.4367,-88.0117,1.646,8.76,1111122 
DISL,ioos:station:DISL:MBLA:1,2016-01-02T03:16:00Z,30.4367,-88.0117,1.18,8.82,1111122 
DISL,ioos:station:DISL:MBLA:1,2016-01-02T03:19:00Z,30.4367,-88.0117,0.439,8.83,1111122 
DISL,ioos:station:DISL:MBLA:1,2016-01-02T04:03:00Z,30.4367,-88.0117,3.365,8.83,1111122 
DISL,ioos:station:DISL:MBLA:1,2016-01-02T04:05:00Z,30.4367,-88.0117,2.881,8.8,1111122 
DISL,ioos:station:DISL:MBLA:1,2016-01-02T04:07:00Z,30.4367,-88.0117,2.457,8.8,1111122 
DISL,ioos:station:DISL:MBLA:1,2016-01-02T04:10:00Z,30.4367,-88.0117,2.017,8.81,1111122 
DISL,ioos:station:DISL:MBLA:1,2016-01-02T04:12:00Z,30.4367,-88.0117,1.598,8.83,1111122 
DISL,ioos:station:DISL:MBLA:1,2016-01-02T04:15:00Z,30.4367,-88.0117,0.835,8.86,1111122 
DISL,ioos:station:DISL:MBLA:1,2016-01-02T04:17:00Z,30.4367,-88.0117,0.518,8.85,1111122 
DISL,ioos:station:DISL:MBLA:1,2016-01-02T05:03:00Z,30.4367,-88.0117,3.454,8.7,1111122 
DISL,ioos:station:DISL:MBLA:1,2016-01-02T05:05:00Z,30.4367,-88.0117,3.006,8.78,1111122 
DISL,ioos:station:DISL:MBLA:1,2016-01-02T05:08:00Z,30.4367,-88.0117,2.577,8.81,1111122 
DISL,ioos:station:DISL:MBLA:1,2016-01-02T05:10:00Z,30.4367,-88.0117,2.169,8.8,1111122 
DISL,ioos:station:DISL:MBLA:1,2016-01-02T05:12:00Z,30.4367,-88.0117,1.55,8.84,1111122 
DISL,ioos:station:DISL:MBLA:1,2016-01-02T05:15:00Z,30.4367,-88.0117,1.102,8.88,1111122 
DISL,ioos:station:DISL:MBLA:1,2016-01-02T05:17:00Z,30.4367,-88.0117,0.665,8.85,1111122 
DISL,ioos:station:DISL:MBLA:1,2016-01-02T06:03:00Z,30.4367,-88.0117,3.529,8.77,1111122 
DISL,ioos:station:DISL:MBLA:1,2016-01-02T06:05:00Z,30.4367,-88.0117,3.039,8.77,1111122 
DISL,ioos:station:DISL:MBLA:1,2016-01-02T06:08:00Z,30.4367,-88.0117,2.535,8.79,1111122 
DISL,ioos:station:DISL:MBLA:1,2016-01-02T06:10:00Z,30.4367,-88.0117,2.048,8.81,1111122 
DISL,ioos:station:DISL:MBLA:1,2016-01-02T06:12:00Z,30.4367,-88.0117,1.475,8.84,1111122 
DISL,ioos:station:DISL:MBLA:1,2016-01-02T06:15:00Z,30.4367,-88.0117,1.126,8.85,1111122 
DISL,ioos:station:DISL:MBLA:1,2016-01-02T06:17:00Z,30.4367,-88.0117,0.547,8.83,1111122 
DISL,ioos:station:DISL:MBLA:1,2016-01-02T07:03:00Z,30.4367,-88.0117,3.504,8.76,1111122 
DISL,ioos:station:DISL:MBLA:1,2016-01-02T07:07:00Z,30.4367,-88.0117,2.551,8.84,1111122 
DISL,ioos:station:DISL:MBLA:1,2016-01-02T07:10:00Z,30.4367,-88.0117,2.034,8.85,1111122 
DISL,ioos:station:DISL:MBLA:1,2016-01-02T07:12:00Z,30.4367,-88.0117,1.54,8.88,1111122 
DISL,ioos:station:DISL:MBLA:1,2016-01-02T07:15:00Z,30.4367,-88.0117,1.046,8.89,1111122 
DISL,ioos:station:DISL:MBLA:1,2016-01-02T07:17:00Z,30.4367,-88.0117,0.563,8.88,1111122 
DISL,ioos:station:DISL:MBLA:1,2016-01-02T08:03:00Z,30.4367,-88.0117,3.504,8.86,1111122 
DISL,ioos:station:DISL:MBLA:1,2016-01-02T08:06:00Z,30.4367,-88.0117,3.0,8.95,1111122 
DISL,ioos:station:DISL:MBLA:1,2016-01-02T08:08:00Z,30.4367,-88.0117,2.534,8.96,1111122 
DISL,ioos:station:DISL:MBLA:1,2016-01-02T08:10:00Z,30.4367,-88.0117,2.099,8.93,1111122 
DISL,ioos:station:DISL:MBLA:1,2016-01-02T08:13:00Z,30.4367,-88.0117,1.58,8.93,1111122 
DISL,ioos:station:DISL:MBLA:1,2016-01-02T08:15:00Z,30.4367,-88.0117,1.024,8.98,1111122 
DISL,ioos:station:DISL:MBLA:1,2016-01-02T08:18:00Z,30.4367,-88.0117,0.435,8.99,1111122 
DISL,ioos:station:DISL:MBLA:1,2016-01-02T09:03:00Z,30.4367,-88.0117,3.477,8.89,1111122 
DISL,ioos:station:DISL:MBLA:1,2016-01-02T09:05:00Z,30.4367,-88.0117,3.04,8.96,1111122 
DISL,ioos:station:DISL:MBLA:1,2016-01-02T09:08:00Z,30.4367,-88.0117,2.5,9.02,1111122 
DISL,ioos:station:DISL:MBLA:1,2016-01-02T09:10:00Z,30.4367,-88.0117,2.077,9.03,1111122 
DISL,ioos:station:DISL:MBLA:1,2016-01-02T09:13:00Z,30.4367,-88.0117,1.361,9.03,1111122 
DISL,ioos:station:DISL:MBLA:1,2016-01-02T09:15:00Z,30.4367,-88.0117,0.957,9.05,1111122 
DISL,ioos:station:DISL:MBLA:1,2016-01-02T09:17:00Z,30.4367,-88.0117,0.46,9.04,1111122 
DISL,ioos:station:DISL:MBLA:1,2016-01-02T10:03:00Z,30.4367,-88.0117,3.445,8.74,1111122 
DISL,ioos:station:DISL:MBLA:1,2016-01-02T10:05:00Z,30.4367,-88.0117,3.055,8.84,1111122 
DISL,ioos:station:DISL:MBLA:1,2016-01-02T10:08:00Z,30.4367,-88.0117,2.466,8.95,1111122 
DISL,ioos:station:DISL:MBLA:1,2016-01-02T10:10:00Z,30.4367,-88.0117,1.798,8.93,1111122 
DISL,ioos:station:DISL:MBLA:1,2016-01-02T10:12:00Z,30.4367,-88.0117,1.363,8.99,1111122 
DISL,ioos:station:DISL:MBLA:1,2016-01-02T10:15:00Z,30.4367,-88.0117,1.082,9.0,1111122 
DISL,ioos:station:DISL:MBLA:1,2016-01-02T10:17:00Z,30.4367,-88.0117,0.318,9.01,1111122 
DISL,ioos:station:DISL:MBLA:1,2016-01-02T11:03:00Z,30.4367,-88.0117,3.547,8.78,1111122 
DISL,ioos:station:DISL:MBLA:1,2016-01-02T11:05:00Z,30.4367,-88.0117,2.962,8.99,1111122 
DISL,ioos:station:DISL:MBLA:1,2016-01-02T11:08:00Z,30.4367,-88.0117,2.57,8.97,1111122 
DISL,ioos:station:DISL:MBLA:1,2016-01-02T11:10:00Z,30.4367,-88.0117,2.049,9.02,1111122 
DISL,ioos:station:DISL:MBLA:1,2016-01-02T11:13:00Z,30.4367,-88.0117,1.429,9.05,1111122 
DISL,ioos:station:DISL:MBLA:1,2016-01-02T11:15:00Z,30.4367,-88.0117,1.135,9.13,1111122 
DISL,ioos:station:DISL:MBLA:1,2016-01-02T11:18:00Z,30.4367,-88.0117,0.404,9.13,1111122 
DISL,ioos:station:DISL:MBLA:1,2016-01-02T12:03:00Z,30.4367,-88.0117,3.539,8.89,1111122 
DISL,ioos:station:DISL:MBLA:1,2016-01-02T12:05:00Z,30.4367,-88.0117,3.04,8.97,1111122 
DISL,ioos:station:DISL:MBLA:1,2016-01-02T12:08:00Z,30.4367,-88.0117,2.636,9.02,1111122 
DISL,ioos:station:DISL:MBLA:1,2016-01-02T12:10:00Z,30.4367,-88.0117,1.99,9.06,1111122 
DISL,ioos:station:DISL:MBLA:1,2016-01-02T12:13:00Z,30.4367,-88.0117,1.588,9.09,1111122 
DISL,ioos:station:DISL:MBLA:1,2016-01-02T12:15:00Z,30.4367,-88.0117,0.991,9.09,1111122 
DISL,ioos:station:DISL:MBLA:1,2016-01-02T12:17:00Z,30.4367,-88.0117,0.819,9.13,1111122 
DISL,ioos:station:DISL:MBLA:1,2016-01-02T13:03:00Z,30.4367,-88.0117,3.493,8.99,1111122 
DISL,ioos:station:DISL:MBLA:1,2016-01-02T13:05:00Z,30.4367,-88.0117,3.023,8.99,1111122 
DISL,ioos:station:DISL:MBLA:1,2016-01-02T13:08:00Z,30.4367,-88.0117,2.6,9.0,1111122 
DISL,ioos:station:DISL:MBLA:1,2016-01-02T13:11:00Z,30.4367,-88.0117,1.975,8.99,1111122 
DISL,ioos:station:DISL:MBLA:1,2016-01-02T13:13:00Z,30.4367,-88.0117,1.603,9.05,1111122 
DISL,ioos:station:DISL:MBLA:1,2016-01-02T13:15:00Z,30.4367,-88.0117,0.946,9.02,1111122 
DISL,ioos:station:DISL:MBLA:1,2016-01-02T13:18:00Z,30.4367,-88.0117,0.522,9.07,1111122 
DISL,ioos:station:DISL:MBLA:1,2016-01-02T14:03:00Z,30.4367,-88.0117,3.493,8.84,1111122 
DISL,ioos:station:DISL:MBLA:1,2016-01-02T14:05:00Z,30.4367,-88.0117,2.938,8.97,1111122 
DISL,ioos:station:DISL:MBLA:1,2016-01-02T14:08:00Z,30.4367,-88.0117,2.467,9.0,1111122 
DISL,ioos:station:DISL:MBLA:1,2016-01-02T14:10:00Z,30.4367,-88.0117,1.986,8.99,1111122 
DISL,ioos:station:DISL:MBLA:1,2016-01-02T14:12:00Z,30.4367,-88.0117,1.643,9.04,1111122 
DISL,ioos:station:DISL:MBLA:1,2016-01-02T14:15:00Z,30.4367,-88.0117,1.153,9.08,1111122 
DISL,ioos:station:DISL:MBLA:1,2016-01-02T14:17:00Z,30.4367,-88.0117,0.545,9.12,1111122 
DISL,ioos:station:DISL:MBLA:1,2016-01-02T15:03:00Z,30.4367,-88.0117,3.504,8.56,1111122 
DISL,ioos:station:DISL:MBLA:1,2016-01-02T15:05:00Z,30.4367,-88.0117,3.0,8.63,1111122 
DISL,ioos:station:DISL:MBLA:1,2016-01-02T15:08:00Z,30.4367,-88.0117,2.457,8.81,1111122 
DISL,ioos:station:DISL:MBLA:1,2016-01-02T15:10:00Z,30.4367,-88.0117,1.958,8.93,1111122 
DISL,ioos:station:DISL:MBLA:1,2016-01-02T15:13:00Z,30.4367,-88.0117,1.473,9.08,1111122 
DISL,ioos:station:DISL:MBLA:1,2016-01-02T15:15:00Z,30.4367,-88.0117,1.049,9.11,1111122 
DISL,ioos:station:DISL:MBLA:1,2016-01-02T15:18:00Z,30.4367,-88.0117,0.378,9.15,1111122 
DISL,ioos:station:DISL:MBLA:1,2016-01-02T16:03:00Z,30.4367,-88.0117,3.445,8.75,1111122 
DISL,ioos:station:DISL:MBLA:1,2016-01-02T16:05:00Z,30.4367,-88.0117,2.923,8.81,1111122 
DISL,ioos:station:DISL:MBLA:1,2016-01-02T16:07:00Z,30.4367,-88.0117,2.516,8.94,1111122 
DISL,ioos:station:DISL:MBLA:1,2016-01-02T16:10:00Z,30.4367,-88.0117,1.944,8.97,1111122 
DISL,ioos:station:DISL:MBLA:1,2016-01-02T16:12:00Z,30.4367,-88.0117,1.514,9.08,1111122 
DISL,ioos:station:DISL:MBLA:1,2016-01-02T16:15:00Z,30.4367,-88.0117,1.005,9.11,1111122 
DISL,ioos:station:DISL:MBLA:1,2016-01-02T16:17:00Z,30.4367,-88.0117,0.61,9.12,1111122 
DISL,ioos:station:DISL:MBLA:1,2016-01-02T17:03:00Z,30.4367,-88.0117,3.453,8.76,1111122 
DISL,ioos:station:DISL:MBLA:1,2016-01-02T17:07:00Z,30.4367,-88.0117,2.423,8.98,1111122 
DISL,ioos:station:DISL:MBLA:1,2016-01-02T17:10:00Z,30.4367,-88.0117,1.943,9.05,1111122 
DISL,ioos:station:DISL:MBLA:1,2016-01-02T17:13:00Z,30.4367,-88.0117,1.384,9.18,1111122 
DISL,ioos:station:DISL:MBLA:1,2016-01-02T17:15:00Z,30.4367,-88.0117,0.974,9.18,1111122 
DISL,ioos:station:DISL:MBLA:1,2016-01-02T17:18:00Z,30.4367,-88.0117,0.431,9.22,1111122 
DISL,ioos:station:DISL:MBLA:1,2016-01-02T18:03:00Z,30.4367,-88.0117,3.375,8.76,1111122 
DISL,ioos:station:DISL:MBLA:1,2016-01-02T18:05:00Z,30.4367,-88.0117,2.971,8.77,1111122 
DISL,ioos:station:DISL:MBLA:1,2016-01-02T18:07:00Z,30.4367,-88.0117,2.493,8.88,1111122 
DISL,ioos:station:DISL:MBLA:1,2016-01-02T18:10:00Z,30.4367,-88.0117,2.108,9.02,1111122 
DISL,ioos:station:DISL:MBLA:1,2016-01-02T18:12:00Z,30.4367,-88.0117,1.434,9.11,1111122 
DISL,ioos:station:DISL:MBLA:1,2016-01-02T18:15:00Z,30.4367,-88.0117,0.968,9.12,1111122 
DISL,ioos:station:DISL:MBLA:1,2016-01-02T18:17:00Z,30.4367,-88.0117,0.565,9.16,1111122 
DISL,ioos:station:DISL:MBLA:1,2016-01-02T19:03:00Z,30.4367,-88.0117,3.474,8.74,1111122 
DISL,ioos:station:DISL:MBLA:1,2016-01-02T19:05:00Z,30.4367,-88.0117,3.015,8.86,1111122 
DISL,ioos:station:DISL:MBLA:1,2016-01-02T19:07:00Z,30.4367,-88.0117,2.546,8.84,1111122 
DISL,ioos:station:DISL:MBLA:1,2016-01-02T19:10:00Z,30.4367,-88.0117,1.995,8.98,1111122 
DISL,ioos:station:DISL:MBLA:1,2016-01-02T19:12:00Z,30.4367,-88.0117,1.559,9.04,1111122 
DISL,ioos:station:DISL:MBLA:1,2016-01-02T19:15:00Z,30.4367,-88.0117,1.052,9.1,1111122 
DISL,ioos:station:DISL:MBLA:1,2016-01-02T19:17:00Z,30.4367,-88.0117,0.637,9.1,1111122 
DISL,ioos:station:DISL:MBLA:1,2016-01-02T20:03:00Z,30.4367,-88.0117,3.503,8.56,1111122 
DISL,ioos:station:DISL:MBLA:1,2016-01-02T20:05:00Z,30.4367,-88.0117,2.986,8.78,1111122 
DISL,ioos:station:DISL:MBLA:1,2016-01-02T20:07:00Z,30.4367,-88.0117,2.502,8.86,1111122 
DISL,ioos:station:DISL:MBLA:1,2016-01-02T20:10:00Z,30.4367,-88.0117,2.042,8.79,1111122 
DISL,ioos:station:DISL:MBLA:1,2016-01-02T20:13:00Z,30.4367,-88.0117,1.552,9.08,1111122 
DISL,ioos:station:DISL:MBLA:1,2016-01-02T20:15:00Z,30.4367,-88.0117,0.945,9.2,1111122 
DISL,ioos:station:DISL:MBLA:1,2016-01-02T20:18:00Z,30.4367,-88.0117,0.471,9.2,1111122 
DISL,ioos:station:DISL:MBLA:1,2016-01-02T21:03:00Z,30.4367,-88.0117,3.507,8.59,1111122 
DISL,ioos:station:DISL:MBLA:1,2016-01-02T21:05:00Z,30.4367,-88.0117,2.93,8.8,1111122 
DISL,ioos:station:DISL:MBLA:1,2016-01-02T21:08:00Z,30.4367,-88.0117,2.513,8.91,1111122 
DISL,ioos:station:DISL:MBLA:1,2016-01-02T21:10:00Z,30.4367,-88.0117,1.932,9.01,1111122 
DISL,ioos:station:DISL:MBLA:1,2016-01-02T21:12:00Z,30.4367,-88.0117,1.528,9.08,1111122 